Location: Carrer del Canonge
(41.4901°N, 2.2931°E)
Time: 14:34:30
(UTC+00:00)

ISS - Pass Details

Date: 28 November 2020
Orbit: 418 x 419 km, 51.6° (Epoch: 18 January)

Event Time Altitude Azimuth Distance (km) Brightness Sun altitude
Rises 17:00:06 0° 279° (W) 2,365 1.2 -7.2°
Reaches altitude 10° 17:02:38 10° 298° (WNW) 1,501 -0.3 -7.6°
Maximum altitude 17:05:06 19° 345° (NNW) 1,082 -1.7 -8.0°
Drops below altitude 10° 17:07:35 10° 33° (NNE) 1,502 -1.4 -8.5°
Enters shadow 17:08:00 - 37° (NE) 1,629 -1.3 -8.5°
